Regional Weather Roundup
Issued by NWS Albany, NY

Home | Current Version | Previous Version | Text Only | Print | Product List | Glossary On
Versions: 1 2 3 4 5 6 7 8 9 10 11 12 13 14 15 16 17 18 19 20 21 22 23 24 25 26 27 28 29 30 31 32 33 34 35 36 37 38 39 40 41 42 43 44 45 46 47 48 49 50
000
ASUS41 KALY 221610
RWRALY

NEW YORK STATE HOURLY WEATHER ROUNDUP
NATIONAL WEATHER SERVICE ALBANY NY
1200 PM EDT SAT APR 22 2017

NOTE: "FAIR" INDICATES FEW OR NO CLOUDS BELOW 12,000 FEET WITH NO
SIGNIFICANT WEATHER AND/OR NO OBSTRUCTIONS TO VISIBILITY.

NYZ032-033-038>043-046>054-057>066-NYZ062>081-082-084-221700-
EAST


CITY           SKY/WX    TMP DP  RH WIND       PRES   REMARKS
ALBANY         PTSUNNY   51  39  63 NW9       29.97S
GLENS FALLS    CLOUDY    54  40  59 W8        29.93F
POUGHKEEPSIE   CLOUDY    51  45  79 N7        29.95S
NEWBURGH       CLOUDY    52  50  93 CALM      29.96S
MONTGOMERY     CLOUDY    54  49  83 NE3       29.93F
WHITE PLAINS   LGT RAIN  54  46  74 N10       29.93F
ISLIP          CLOUDY    52  45  77 N13       29.93S
NEW YORK CITY  CLOUDY    55  47  74 NE12      29.93F
CENTRAL PARK   CLOUDY    56  47  71 NE9       29.96F
$$

NYZ005>009-017-018-044>046-055-056-221700-
CENTRAL


CITY           SKY/WX    TMP DP  RH WIND       PRES   REMARKS
FULTON         CLOUDY    44  40  85 W14       30.03R
SYRACUSE       CLOUDY    47  39  74 W10       30.01F
ROME           CLOUDY    45  37  73 W10       30.01F
ELMIRA         CLOUDY    47  34  60 NW7       30.01S
BINGHAMTON     CLOUDY    43  34  70 NW10      29.97F
MONTICELLO     PTSUNNY   46  43  87 N8        29.97S
$$

NYZ026>034-041>043-087-221700-
NORTH


CITY           SKY/WX    TMP DP  RH WIND       PRES   REMARKS
WATERTOWN      LGT RAIN  46  42  86 W10       30.01R
FORT DRUM      NOT AVBL
OGDENSBURG     PTSUNNY   47  40  76 NW10      30.00R
MASSENA        CLOUDY    45  39  79 NW10      29.99R
SARANAC LAKE   CLOUDY    41  37  86 VRB6      29.92R
PLATTSBURGH    CLOUDY    50  37  61 NW8       29.94R
$$

NYZ001>004-010>016-019>021-085-221700-
WEST


CITY           SKY/WX    TMP DP  RH WIND       PRES   REMARKS
NIAGARA FALLS  CLOUDY    47  33  58 NW13      30.08F
BUFFALO        CLOUDY    44  34  67 NW13      30.07F
DUNKIRK        CLOUDY    44  37  76 N7        30.09F
JAMESTOWN      CLOUDY    43  30  61 NW12G17   30.04S
WELLSVILLE     CLOUDY    42  33  70 N12       30.02R
ROCHESTER      CLOUDY    45  35  68 NW12      30.05S
PENN YAN       CLOUDY    44  33  65 W6        30.04R
$$

             KEY
       WCI = WIND CHILL INDEX
       VSB = VISIBILITY
       HX  = HEAT INDEX
$$



USA.gov is the U.S. government's official web portal to all federal, state and local government web resources and services.